Time,TemperatureF,DewpointF,PressureIn,WindDirection,WindDirectionDegrees,WindSpeedMPH,WindSpeedGustMPH,Humidity,HourlyPrecipIn,Conditions,Clouds,dailyrainin,SoftwareType,DateUTC
2013-06-20 00:02:00,72.0,68.0,30.05,NE,45,0.0,0.0,86,0.00,,,0.79,,2013-06-20 05:02:00,
2013-06-20 00:12:00,71.0,67.0,30.05,NE,45,0.0,0.0,87,0.00,,,0.79,,2013-06-20 05:12:00,
2013-06-20 00:22:00,71.0,67.0,30.05,NE,45,0.0,0.0,87,0.00,,,0.79,,2013-06-20 05:22:00,
2013-06-20 00:33:00,71.0,67.0,30.05,NE,45,0.0,0.0,87,0.00,,,0.79,,2013-06-20 05:33:00,
2013-06-20 00:44:00,71.0,67.0,30.05,NE,45,0.0,0.0,88,0.00,,,0.79,,2013-06-20 05:44:00,
2013-06-20 00:52:00,70.0,67.0,30.06,NE,45,0.0,0.0,89,0.00,,,0.79,,2013-06-20 05:52:00,
2013-06-20 01:02:00,70.0,67.0,30.06,NE,45,0.0,0.0,89,0.00,,,0.79,,2013-06-20 06:02:00,
2013-06-20 01:11:00,70.0,67.0,30.06,NE,45,0.0,0.0,90,0.00,,,0.79,,2013-06-20 06:11:00,
2013-06-20 01:22:00,70.0,67.0,30.06,NE,45,0.0,0.0,91,0.00,,,0.00,,2013-06-20 06:22:00,
2013-06-20 01:33:00,70.0,67.0,30.06,NE,45,0.0,0.0,91,0.00,,,0.00,,2013-06-20 06:33:00,
2013-06-20 01:43:00,70.0,67.0,30.06,NE,45,0.0,0.0,91,0.00,,,0.00,,2013-06-20 06:43:00,
2013-06-20 01:53:00,70.0,67.0,30.06,NE,45,0.0,0.0,91,0.00,,,0.00,,2013-06-20 06:53:00,
2013-06-20 02:01:00,70.0,67.0,30.06,NE,45,0.0,0.0,91,0.00,,,0.00,,2013-06-20 07:01:00,
2013-06-20 02:12:00,70.0,67.0,30.06,NE,45,0.0,0.0,91,0.00,,,0.00,,2013-06-20 07:12:00,
2013-06-20 02:22:00,70.0,67.0,30.06,NE,45,0.0,0.0,91,0.00,,,0.00,,2013-06-20 07:22:00,
2013-06-20 02:34:00,70.0,67.0,30.06,NE,45,0.0,0.0,91,0.00,,,0.00,,2013-06-20 07:34:00,
2013-06-20 02:44:00,69.0,66.0,30.06,NE,45,0.0,0.0,91,0.00,,,0.00,,2013-06-20 07:44:00,
2013-06-20 02:52:00,69.0,66.0,30.06,NE,45,0.0,0.0,91,0.00,,,0.00,,2013-06-20 07:52:00,
2013-06-20 03:02:00,69.0,66.0,30.06,NE,45,0.0,0.0,91,0.00,,,0.00,,2013-06-20 08:02:00,
2013-06-20 03:11:00,69.0,67.0,30.06,NE,45,0.0,0.0,92,0.00,,,0.00,,2013-06-20 08:11:00,
2013-06-20 03:22:00,68.0,66.0,30.06,NE,45,0.0,0.0,92,0.00,,,0.00,,2013-06-20 08:22:00,
2013-06-20 03:34:00,68.0,66.0,30.06,NE,45,0.0,0.0,93,0.00,,,0.00,,2013-06-20 08:34:00,
2013-06-20 03:43:00,69.0,67.0,30.06,NE,45,0.0,0.0,93,0.00,,,0.00,,2013-06-20 08:43:00,
2013-06-20 03:53:00,69.0,67.0,30.07,NE,45,0.0,0.0,93,0.00,,,0.00,,2013-06-20 08:53:00,
2013-06-20 04:02:00,68.0,66.0,30.07,NE,45,0.0,0.0,93,0.00,,,0.00,,2013-06-20 09:02:00,
2013-06-20 04:12:00,68.0,66.0,30.07,NE,45,0.0,0.0,94,0.00,,,0.00,,2013-06-20 09:12:00,
2013-06-20 04:22:00,68.0,66.0,30.08,NE,45,0.0,0.0,94,0.00,,,0.00,,2013-06-20 09:22:00,
2013-06-20 04:33:00,68.0,66.0,30.08,NE,45,0.0,0.0,94,0.00,,,0.00,,2013-06-20 09:33:00,
2013-06-20 04:42:00,67.0,65.0,30.08,NE,45,0.0,0.0,94,0.00,,,0.00,,2013-06-20 09:42:00,
2013-06-20 04:52:00,67.0,65.0,30.08,NE,45,0.0,0.0,94,0.00,,,0.00,,2013-06-20 09:52:00,
2013-06-20 05:01:00,67.0,66.0,30.08,NE,45,0.0,0.0,95,0.00,,,0.00,,2013-06-20 10:01:00,
2013-06-20 05:11:00,67.0,66.0,30.09,NE,45,0.0,0.0,95,0.00,,,0.00,,2013-06-20 10:11:00,
2013-06-20 05:22:00,67.0,66.0,30.09,NE,45,0.0,0.0,95,0.00,,,0.00,,2013-06-20 10:22:00,
2013-06-20 05:34:00,67.0,66.0,30.09,NE,45,0.0,0.0,95,0.00,,,0.00,,2013-06-20 10:34:00,
2013-06-20 05:43:00,67.0,66.0,30.09,NE,45,0.0,0.0,96,0.00,,,0.00,,2013-06-20 10:43:00,
2013-06-20 05:53:00,68.0,67.0,30.09,NE,45,0.0,0.0,96,0.00,,,0.00,,2013-06-20 10:53:00,
2013-06-20 06:02:00,68.0,67.0,30.10,NE,45,0.0,0.0,95,0.00,,,0.00,,2013-06-20 11:02:00,
2013-06-20 06:12:00,68.0,67.0,30.10,NE,45,0.0,0.0,95,0.00,,,0.00,,2013-06-20 11:12:00,
2013-06-20 06:22:00,68.0,67.0,30.10,NE,45,0.0,0.0,95,0.00,,,0.00,,2013-06-20 11:22:00,
2013-06-20 06:34:00,68.0,67.0,30.10,NE,45,0.0,0.0,95,0.00,,,0.00,,2013-06-20 11:34:00,
2013-06-20 06:42:00,68.0,67.0,30.10,NE,45,0.0,0.0,95,0.00,,,0.00,,2013-06-20 11:42:00,
2013-06-20 06:53:00,69.0,68.0,30.11,NE,45,0.0,0.0,95,0.00,,,0.00,,2013-06-20 11:53:00,
2013-06-20 07:02:00,69.0,68.0,30.11,NE,45,0.0,0.0,95,0.00,,,0.00,,2013-06-20 12:02:00,
2013-06-20 07:11:00,69.0,68.0,30.11,NE,45,0.0,0.0,95,0.00,,,0.00,,2013-06-20 12:11:00,
2013-06-20 07:22:00,70.0,68.0,30.12,NE,45,0.0,0.0,95,0.00,,,0.00,,2013-06-20 12:22:00,
2013-06-20 07:34:00,71.0,69.0,30.12,NE,45,0.0,0.0,94,0.00,,,0.00,,2013-06-20 12:34:00,
2013-06-20 07:43:00,73.0,71.0,30.13,NE,45,1.0,0.0,92,0.00,,,0.00,,2013-06-20 12:43:00,
2013-06-20 07:53:00,73.0,71.0,30.13,NE,45,0.0,0.0,92,0.00,,,0.00,,2013-06-20 12:53:00,
2013-06-20 08:02:00,74.0,71.0,30.13,NE,45,0.0,0.0,91,0.00,,,0.00,,2013-06-20 13:02:00,
2013-06-20 08:11:00,74.0,71.0,30.13,NE,45,0.0,0.0,91,0.00,,,0.00,,2013-06-20 13:11:00,
2013-06-20 08:22:00,76.0,72.0,30.13,ENE,58,0.0,0.0,86,0.00,,,0.00,,2013-06-20 13:22:00,
2013-06-20 08:33:00,77.0,72.0,30.13,ENE,60,0.0,0.0,84,0.00,,,0.00,,2013-06-20 13:33:00,
2013-06-20 08:42:00,78.0,71.0,30.14,East,97,2.0,0.0,80,0.00,,,0.00,,2013-06-20 13:42:00,
2013-06-20 08:53:00,79.0,72.0,30.14,ESE,117,0.0,0.0,78,0.00,,,0.00,,2013-06-20 13:53:00,
2013-06-20 09:02:00,80.0,71.0,30.14,SSE,150,1.0,0.0,74,0.00,,,0.00,,2013-06-20 14:02:00,
2013-06-20 09:11:00,80.0,71.0,30.14,SSE,150,1.0,0.0,74,0.00,,,0.00,,2013-06-20 14:11:00,
2013-06-20 09:22:00,81.0,70.0,30.14,ESE,115,0.0,0.0,69,0.00,,,0.00,,2013-06-20 14:22:00,
2013-06-20 09:32:00,81.0,69.0,30.14,East,91,2.0,0.0,66,0.00,,,0.00,,2013-06-20 14:32:00,
2013-06-20 09:42:00,81.0,69.0,30.14,SSE,160,0.0,0.0,66,0.00,,,0.00,,2013-06-20 14:42:00,
2013-06-20 09:53:00,82.0,69.0,30.14,ESE,115,0.0,0.0,66,0.00,,,0.00,,2013-06-20 14:53:00,
2013-06-20 10:02:00,82.0,69.0,30.14,East,90,0.0,0.0,64,0.00,,,0.00,,2013-06-20 15:02:00,
2013-06-20 10:11:00,82.0,68.0,30.15,SE,129,2.0,0.0,63,0.00,,,0.00,,2013-06-20 15:11:00,
2013-06-20 10:22:00,83.0,69.0,30.15,NE,51,2.0,0.0,63,0.00,,,0.00,,2013-06-20 15:22:00,
2013-06-20 10:33:00,83.0,69.0,30.15,NE,34,0.0,0.0,63,0.00,,,0.00,,2013-06-20 15:33:00,
2013-06-20 10:43:00,83.0,69.0,30.15,SSE,152,4.0,0.0,63,0.00,,,0.00,,2013-06-20 15:43:00,
2013-06-20 10:53:00,83.0,69.0,30.15,SSE,152,4.0,0.0,63,0.00,,,0.00,,2013-06-20 15:53:00,
2013-06-20 11:01:00,84.0,70.0,30.15,SE,124,3.0,3.0,63,0.00,,,0.00,,2013-06-20 16:01:00,
2013-06-20 11:12:00,84.0,70.0,30.15,SE,145,0.0,0.0,63,0.00,,,0.00,,2013-06-20 16:12:00,
2013-06-20 11:22:00,84.0,69.0,30.15,NNE,23,1.0,0.0,61,0.00,,,0.00,,2013-06-20 16:22:00,
2013-06-20 11:33:00,84.0,69.0,30.15,ENE,60,5.0,0.0,61,0.00,,,0.00,,2013-06-20 16:33:00,
2013-06-20 11:42:00,84.0,69.0,30.15,SE,146,3.0,0.0,60,0.00,,,0.00,,2013-06-20 16:42:00,
2013-06-20 11:52:00,85.0,69.0,30.15,SE,146,0.0,0.0,59,0.00,,,0.00,,2013-06-20 16:52:00,
2013-06-20 12:02:00,85.0,69.0,30.15,SSW,198,1.0,0.0,59,0.00,,,0.00,,2013-06-20 17:02:00,
2013-06-20 12:12:00,86.0,69.0,30.14,NE,39,0.0,0.0,58,0.00,,,0.00,,2013-06-20 17:12:00,
2013-06-20 12:22:00,86.0,69.0,30.14,South,186,5.0,5.0,58,0.00,,,0.00,,2013-06-20 17:22:00,
2013-06-20 12:32:00,87.0,70.0,30.14,South,184,2.0,0.0,57,0.00,,,0.00,,2013-06-20 17:32:00,
2013-06-20 12:43:00,87.0,70.0,30.14,East,84,0.0,6.0,57,0.00,,,0.00,,2013-06-20 17:43:00,
2013-06-20 12:53:00,87.0,69.0,30.14,NE,42,0.0,3.0,56,0.00,,,0.00,,2013-06-20 17:53:00,
2013-06-20 13:01:00,87.0,69.0,30.13,SSE,155,0.0,0.0,55,0.00,,,0.00,,2013-06-20 18:01:00,
2013-06-20 13:11:00,87.0,69.0,30.13,ENE,66,0.0,0.0,56,0.00,,,0.00,,2013-06-20 18:11:00,
2013-06-20 13:22:00,87.0,69.0,30.13,ENE,66,0.0,0.0,56,0.00,,,0.00,,2013-06-20 18:22:00,
2013-06-20 13:33:00,88.0,70.0,30.12,NW,316,3.0,0.0,56,0.00,,,0.00,,2013-06-20 18:33:00,
2013-06-20 13:43:00,88.0,70.0,30.12,NNE,24,3.0,3.0,55,0.00,,,0.00,,2013-06-20 18:43:00,
2013-06-20 13:53:00,88.0,69.0,30.12,East,84,1.0,3.0,54,0.00,,,0.00,,2013-06-20 18:53:00,
2013-06-20 14:01:00,88.0,69.0,30.12,NNE,21,2.0,3.0,54,0.00,,,0.00,,2013-06-20 19:01:00,
2013-06-20 14:11:00,87.0,68.0,30.12,ESE,105,0.0,0.0,54,0.00,,,0.00,,2013-06-20 19:11:00,
2013-06-20 14:22:00,86.0,68.0,30.12,ESE,105,0.0,0.0,56,0.00,,,0.00,,2013-06-20 19:22:00,
2013-06-20 14:34:00,86.0,69.0,30.11,SE,127,1.0,5.0,57,0.00,,,0.00,,2013-06-20 19:34:00,
2013-06-20 14:43:00,88.0,70.0,30.11,East,87,0.0,0.0,56,0.00,,,0.00,,2013-06-20 19:43:00,
2013-06-20 14:52:00,88.0,69.0,30.11,NNE,27,0.0,0.0,53,0.00,,,0.00,,2013-06-20 19:52:00,
2013-06-20 15:02:00,89.0,70.0,30.11,NNE,31,0.0,5.0,53,0.00,,,0.00,,2013-06-20 20:02:00,
2013-06-20 15:11:00,89.0,69.0,30.11,ENE,69,4.0,0.0,52,0.00,,,0.00,,2013-06-20 20:11:00,
2013-06-20 16:01:00,87.0,69.0,30.10,SW,221,2.0,5.0,55,0.00,,,0.00,,2013-06-20 21:01:00,